Barrow, AK

12:29 PM AKDT on June 25, 2018 (GMT -0800)
Wiley Post-Will Rogers Memorial

Weather History for PABR - January, 2017

Change the Weather History Date:

Thursday, January 5, 2017

  Actual Average Record
Temperature  
Mean Temperature 6 °F -12 °F  
Max Temperature 19 °F -6 °F 32 °F (1974)
Min Temperature -6 °F -18 °F -50 °F (1943)
Degree Days  
Heating Degree Days 58 77  
Month to date heating degree days 384  
Since 1 July heating degree days 8593  
Cooling Degree Days 0 0  
Month to date cooling degree days 0  
Year to date cooling degree days 0  
Moisture  
Dew Point -2 °F    
Average Humidity 75    
Maximum Humidity 84    
Minimum Humidity 70    
Precipitation  
Precipitation 0.02 in 0.00 in 0.07 in (2012)
Month to date precipitation 0.02  
Year to date precipitation 0.02  
Snow  
Snow 0.00 in 0.00 in 1.60 in (2012)
Month to date snowfall 0.4  
Since 1 July snowfall 24.2  
Snow Depth 5.00 in    
Sea Level Pressure  
Sea Level Pressure 30.39 in    
Wind  
Wind Speed 31 mph (WNW)    
Max Wind Speed 41 mph    
Max Gust Speed 54 mph    
Visibility 4 miles    
Events Snow    
T = Trace of Precipitation, MM = Missing Value Source: NWS Daily Summary

Daily Weather History Graph

Daily Weather History Graph

Search for Another Location

Airport or City:

Astronomy

Dec. 31, 1969 Rise Set
Actual Time Sun does not set Sun does not set
Civil Twilight 11:35 AM AKST 3:31 PM AKST
Nautical Twilight 9:38 AM AKST 5:27 PM AKST
Astronomical Twilight 8:14 AM AKST 6:51 PM AKST
Moon 12:52 PM AKST (1/5) 1:22 AM AKST (1/5)
Length of Visible Light 3h 56m
Length of Day
0h 00m
Waxing Crescent, 51% of the Moon is Illuminated
Jan 5
Waxing Crescent
Jan 12
Full
Jan 19
Last Quarter
Jan 27
New
Feb 3
First Quarter

Hourly Weather History & Observations

Time (AKST) Temp. Windchill Dew Point Humidity Pressure Visibility Wind Dir Wind Speed Gust Speed Precip Events Conditions
12:19 AM 19.9 °F 0.7 °F 14.0 °F 78% 29.89 in 2.5 mi SW 32.2 mph 46.0 mph 0.00 in Snow Light Snow
12:29 AM 19.0 °F -2.3 °F 12.0 °F 74% 29.88 in 1.0 mi WSW 40.3 mph 50.6 mph 0.00 in Snow Light Snow
12:31 AM 19.0 °F -2.3 °F 12.0 °F 74% 29.88 in 0.8 mi SW 40.3 mph 50.6 mph 0.00 in Snow Light Snow
12:41 AM 17.1 °F -5.3 °F 10.0 °F 74% 29.89 in 1.0 mi SW 41.4 mph 50.6 mph 0.00 in Snow Light Snow
12:53 AM 15.1 °F -7.6 °F 8.1 °F 74% 29.91 in 0.8 mi SW 39.1 mph 50.6 mph 0.00 in Snow Light Snow
1:01 AM 15.1 °F -6.8 °F 7.0 °F 70% 29.90 in 1.5 mi SW 35.7 mph 47.2 mph 0.00 in Snow Light Snow
1:10 AM 15.1 °F -6.8 °F 7.0 °F 70% 29.90 in 2.5 mi WSW 35.7 mph 44.9 mph 0.00 in Snow Light Snow
1:20 AM 14.0 °F -8.0 °F 7.0 °F 74% 29.89 in 4.0 mi SW 34.5 mph 41.4 mph 0.00 in Snow Light Snow
1:53 AM 14.0 °F -6.2 °F 7.0 °F 74% 29.90 in 4.0 mi SW 27.6 mph 35.7 mph 0.00 in Snow Light Snow
2:53 AM 14.0 °F -2.0 °F 8.1 °F 77% 29.90 in 5.0 mi WSW 16.1 mph - 0.00 in Snow Blowing Snow
3:36 AM 16.0 °F 0.1 °F 10.0 °F 77% 29.91 in 1.8 mi West 17.3 mph - 0.00 in Snow Light Snow
3:53 AM 16.0 °F 0.1 °F 10.9 °F 81% 29.92 in 1.0 mi WSW 17.3 mph - 0.00 in Snow Light Snow
4:16 AM 17.1 °F 1.5 °F 12.9 °F 84% 29.93 in 5.0 mi West 17.3 mph - 0.00 in Snow Light Snow
4:22 AM 17.1 °F -3.8 °F 12.0 °F 81% 29.94 in 0.8 mi NW 34.5 mph 44.9 mph 0.00 in Snow Light Snow
4:26 AM 14.0 °F -6.8 °F 9.0 °F 80% 29.96 in 0.2 mi NW 29.9 mph 44.9 mph 0.00 in Snow Light Snow
4:32 AM 12.0 °F -9.5 °F 6.1 °F 77% 29.97 in 0.2 mi NW 29.9 mph 44.9 mph 0.00 in Snow Light Snow
4:53 AM 7.0 °F -17.7 °F 1.0 °F 77% 30.03 in 0.2 mi NW 34.5 mph 51.8 mph 0.00 in Snow Light Snow
5:32 AM 5.0 °F -21.3 °F -0.9 °F 76% 30.13 in 0.1 mi NW 38.0 mph 54.1 mph 0.00 in Snow Light Snow
5:41 AM 5.0 °F -20.7 °F -0.9 °F 76% 30.16 in 0.1 mi NW 35.7 mph 49.5 mph 0.00 in Snow Light Snow
5:53 AM 5.0 °F -21.3 °F -0.9 °F 76% 30.19 in 0.1 mi NW 38.0 mph 54.1 mph 0.00 in Snow Light Snow
6:17 AM 3.9 °F -22.8 °F -0.9 °F 80% 30.25 in 0.2 mi NW 38.0 mph 49.5 mph 0.00 in Snow Light Snow
6:53 AM 3.0 °F -23.4 °F -2.0 °F 80% 30.33 in 0.2 mi WNW 35.7 mph 46.0 mph 0.00 in Snow Light Snow
7:07 AM 1.9 °F -25.8 °F -4.0 °F 76% 30.35 in 0.5 mi NW 39.1 mph 50.6 mph 0.00 in Snow Light Snow
7:18 AM 1.9 °F -23.6 °F -4.0 °F 76% 30.37 in 0.8 mi WNW 31.1 mph 46.0 mph 0.02 in Snow Light Snow
7:33 AM 1.9 °F -23.6 °F -5.1 °F 72% 30.41 in 1.5 mi WNW 31.1 mph 44.9 mph 0.02 in Snow Light Snow
7:49 AM -0.4 °F -28.5 °F -7.6 °F 72% 30.44 in 0.8 mi WNW 36.8 mph 44.9 mph 0.02 in Snow Light Snow
7:53 AM -0.0 °F -26.6 °F -7.1 °F 72% 30.45 in 0.8 mi WNW 32.2 mph 44.9 mph 0.02 in Snow Light Snow
8:07 AM -0.9 °F -28.5 °F -8.0 °F 72% 30.46 in 1.0 mi NW 34.5 mph 44.9 mph 0.00 in Snow Light Snow
8:40 AM -2.0 °F -29.3 °F -9.0 °F 72% 30.52 in 2.0 mi WNW 32.2 mph 41.4 mph 0.00 in Snow Light Snow
8:48 AM -2.2 °F -29.2 °F -9.4 °F 71% 30.53 in 1.5 mi WNW 31.1 mph 42.6 mph 0.00 in Snow Light Snow
8:53 AM -2.9 °F -29.4 °F -9.0 °F 75% 30.54 in 2.0 mi WNW 28.8 mph 40.3 mph 0.00 in Snow Light Snow
9:15 AM -2.9 °F -30.2 °F -9.9 °F 72% 30.57 in 3.0 mi WNW 31.1 mph 41.4 mph 0.00 in Snow Blowing Snow
9:53 AM -4.0 °F -30.4 °F -11.0 °F 72% 30.62 in 3.0 mi WNW 27.6 mph 35.7 mph 0.00 in Snow Blowing Snow
10:53 AM -6.0 °F -33.5 °F -11.9 °F 75% 30.67 in 10.0 mi WNW 28.8 mph - N/A Snow Blowing Snow
11:53 AM -6.0 °F -31.2 °F -11.9 °F 75% 30.74 in 10.0 mi WNW 23.0 mph - N/A   Clear
12:53 PM -5.1 °F -29.0 °F -11.9 °F 72% 30.80 in 10.0 mi WNW 20.7 mph - N/A   Partly Cloudy
1:53 PM -6.0 °F -31.2 °F -11.9 °F 75% 30.84 in 10.0 mi WNW 23.0 mph - N/A   Scattered Clouds
2:00 PM -5.1 °F -31.0 °F -11.9 °F 72% 30.83 in 10.0 mi West 25.3 mph - N/A   Mostly Cloudy
2:53 PM -6.0 °F -32.2 °F -11.9 °F 75% 30.87 in 10.0 mi West 25.3 mph - N/A   Partly Cloudy
3:53 PM -6.0 °F -31.2 °F -11.9 °F 75% 30.92 in 10.0 mi WNW 23.0 mph 32.2 mph N/A   Partly Cloudy
4:53 PM -6.0 °F -31.7 °F -11.9 °F 75% 30.95 in 10.0 mi West 24.2 mph - N/A Snow Blowing Snow
5:53 PM -6.0 °F -29.0 °F -11.0 °F 79% 30.97 in 10.0 mi WNW 18.4 mph - N/A Snow Blowing Snow
6:53 PM -6.0 °F -28.4 °F -11.9 °F 75% 30.99 in 10.0 mi WNW 17.3 mph - 0.00 in Snow Blowing Snow
7:53 PM -6.0 °F -27.0 °F -11.9 °F 75% 31.02 in 10.0 mi West 15.0 mph - N/A Snow Blowing Snow
8:53 PM -5.1 °F -27.2 °F -11.0 °F 76% 31.03 in 10.0 mi West 17.3 mph - N/A   Clear
9:53 PM -5.1 °F -24.3 °F -11.0 °F 76% 31.05 in 10.0 mi West 12.7 mph - N/A   Clear
10:53 PM -4.0 °F -23.0 °F -11.0 °F 72% 31.06 in 10.0 mi West 12.7 mph - 0.00 in   Clear
11:53 PM -4.0 °F -20.2 °F -9.9 °F 76% 31.05 in 10.0 mi West 9.2 mph - 0.00 in   Clear